Tracking 29892 objects as of 21-Nov-2024
HD Live streaming from Space Station
objects crossing your sky now

STARLINK-3984

Track STARLINK-3984 now!
10-day predictions
STARLINK-3984 is classified as:


NORAD ID: 52621
Int'l Code: 2022-052Z
Perigee: 545.8 km
Apogee: 547.9 km
Inclination: 53.2 °
Period: 95.4 minutes
Semi major axis: 6917 km
RCS: Unknown
Launch date: May 14, 2022
Source: United States (US)
Launch site: AIR FORCE EASTERN TEST RANGE (AFETR)
Your satellite tracking list
Your tracking list is empty




NASA's NSSDC Master Catalog

Two Line Element Set (TLE):
1 52621U 22052Z   24325.78629672  .00002545  00000-0  17794-3 0  9997
2 52621  53.2159 236.5517 0001497  99.1206 260.9955 15.08839349139447
Source of the keplerian elements: AFSPC